Погода в Кыштовке

Погода в Кыштовке : погода сейчас, прогноз погоды и архив. Всё, что Вы хотите узнать о погоде в Кыштовке!

Хотите узнать прогноз погоды в Кыштовке? Тогда Вам сюда: Погода в Кыштовке

Поиск расширенной информации на нашем сайте:

Другие новости

Новости СМИ2

Главная страница сайта

Новости сайта

03.07.2017

Напоминаем, что на нашем специализированном сайте Метеоцентр.Азия вы можете получить высокодетализированные автоматические прогнозы погоды по пунктам России, СНГ и мира в авиационном формате (включающие направление и скорость ветра, видимость, явления погоды, количество и форму облачности, нижнюю и верхнюю границу облачности).


Погода в Кыштовке - сегодня

Время (UTC), дата Ветер
(°,м/с) 
Видим.   Явления Облачность Т
(°С)
Тd
(°С)
f(%) Тe
(°С)
Pmin
(гПа)
dP
(гПа)
Po
(мм)
O2
(г/м3)
Тmin Tmax R s Состояние
почвы
09 13.01.18 260 (З) 10 км    ясно 
-27.9 -31.7 70 -29  1024.1  756  341           
12 13.01.18 220 (ЮЗ) 10 км    ясно 
-30.7 -34.3 71 -31  1024.7  0.4  756  345    -26.6       
15 13.01.18 230 (ЮЗ) 10 км    ясно 
-32.1 -36 68 -36  1024.6  -0.2  756  347           
18 13.01.18 220 (ЮЗ) 10 км    ясно 
-30.6 -34.3 70 -34  1023.9  -0.6  755  345           
21 13.01.18 220 (ЮЗ) 10 км    ясно 
-27.2 -30.7 72 -32  1022.9  -0.7  755  340           
00 14.01.18 230 (ЮЗ) 10 км    3/3 600 м кучево-дожд. 
[Cb calv]
-24.8 -28.2 73 -31  1021.9  -0.9  754  336  -33.2      47  равномерный
сухой снег
100% 
03 14.01.18 230 (ЮЗ) 10 км    4/3 600 м кучево-дожд., верхняя 
[Cb calv|Ci fib]
-23.4 -27.5 69 -29  1020.7  -1.1  753  334           
06 14.01.18 230 (ЮЗ) 4000 м  слаб. ливневой снег  10/8 600 м кучево-дожд., средняя 
[Cb calv|Ac trans]
-22.4 -26.4 70 -28  1020.6  753  332           
09 14.01.18 230 (ЮЗ) 4000 м  слаб. ливневой снег  10/8 600 м кучево-дожд., средняя 
[Cb calv|Ac trans]
-21.7 -25.1 74 -26  1020.5  753  332           
12 14.01.18 240 (ЮЗ) 4000 м  слаб. ливневой снег  10/9 300 м кучево-дожд., средняя 
[Cb calv|Ac trans]
-22 -25.4 74 -28  1021.8  1.3  754  332    -21.6  0.7     
15 14.01.18 230 (ЮЗ) 10 км  {ливн. осадки}  4/0 средняя, верхняя 
[Ac trans|Ci fib]
-22.3 -25.5 75 -25  1022.5  0.6  755  333           
18 14.01.18 240 (ЮЗ) 10 км    4/0 средняя, верхняя 
[Ac trans|Ci fib]
-22.7 -25.9 75 -26  1022.6  755  334           
21 14.01.18 230 (ЮЗ) 10 км    ясно 
-24.4 -27.4 76 -28  1023  0.3  755  336           
00 15.01.18 220 (ЮЗ) 10 км    6/3 600 м кучево-дожд., средняя, верхняя 
[Cb calv|Ac trans|Ci fib]
-20.4 -23.2 78 -23  1022.2  -0.5  755  330  -26.4    0.0  48  равномерный
сухой снег
100% 
03 15.01.18 210 (ЮЗ) 4000 м  слаб. ливневой снег  10/10 500 м кучево-дожд. 
[Cb calv]
-18 -20.8 79 -21  1020.8  -1.3  754  327           
06 15.01.18 220 (ЮЗ) 4000 м  слаб. ливневой снег  10/10 480 м кучево-дожд. 
[Cb calv]
-16.1 -19 78 -21  1018.8  -1.7  752  324           
09 15.01.18 230 (ЮЗ) 4000 м  слаб. ливневой снег  10/10 540 м кучево-дожд. 
[Cb calv]
-14.6 -17.3 80 -19  1017.3  -1.5  751  321           
12 15.01.18 230 (ЮЗ) 4000 м  слаб. ливневой снег  10/10 480 м кучево-дожд. 
[Cb calv]
-14.5 -17 81 -19  1016.8  -0.5  751  321    -14.4     
15 15.01.18 240 (ЮЗ) 4000 м  слаб. ливневой снег  10/10 480 м кучево-дожд. 
[Cb calv]
-13.2 -15.5 83 -18  1015.6  -1.1  750  319           
18 15.01.18 250 (З) 10 км  {ливн. осадки}  10/8 600 м кучево-дожд., средняя 
[Cb calv|Ac trans]
-11.3 -13.7 82 -15  1014.9  -0.5  750  316           
21 15.01.18 260 (З) 4000 м  слаб. ливневой снег  10/10 500 м кучево-дожд. 
[Cb calv]
-9.4 -11.1 87 -14  1014.8  750  314           
00 16.01.18 260 (З) 4000 м  слаб. ливневой снег  10/10 400 м кучево-дожд. 
[Cb calv]
-7.9 -9.6 88 -12  1014.8  0.1  750  312  -14.5    0.7  50  равномерный
сухой снег
100% 
03 16.01.18 270 (З) 4000 м  слаб. ливневой снег  10/10 270 м кучево-дожд. 
[Cb calv]
-6.9 -8.4 89 -10  1015  0.2  750  311           
06 16.01.18 260 (З) 10 км  {ливн. осадки} [диам. гололёда 2 мм]  10/10 270 м кучево-дожд. 
[Cb calv]
-6.8 -8.2 90 -10  1015.3  0.3  750  311           
09 16.01.18 260 (З) 10 км  {ливн. осадки} [диам. гололёда 2 мм]  10/10 330 м кучево-дожд. 
[Cb calv]
-6 -7.7 88 -10  1014.7  -0.5  750  310           
Время (UTC), дата Ветер
(°,м/с) 
Видим.   Явления Облачность Т
(°С)
Тd
(°С)
f(%) Тe
(°С)
Pmin
(гПа)
dP
(гПа)
Po
(мм)
O2
(г/м3)
Тmin Tmax R s Состояние
почвы

Для получения пояснительной информации подведите курсор к названию столбца.

ПОГОДА в Кыштовке - архив

Всё, что Вы хотите узнать о погоде в Кыштовке - удобно и подробно!

Выберите нужную дату (начиная с 1 января 2015* года) и нажмите кнопку "Найти".
Будут отображены архивные сводки погоды по пункту Кыштовка, начиная с указанной даты.


Отображать данные в формате CSV (для использования в таблицах Excel)


Внимание! Наш архив погоды предназначен исключительно для личного некоммерческого использования в познавательных целях. Если Вам необходимы официальные справки о состоянии погоды (для производственных, юридических, коммерческих и т.п. целей), обращайтесь в органы Росгидромета.

*Примечание: данная дата относится к архиву по метеостанциям СССР (Россия, СНГ, Балтия).
Архив по метеостанциям Зарубежной Европы и Азии (кроме Китая) хранится 10 дней, по другим регионам земного шара (Китай, Африка, Америка, Австралия, Океания) - 1 день.

Кыштовка - район местоположения метеостанции


Название, широта, долгота, высота метеостанции:
Кыштовка 56.6°ш. 76.9°д. 116 м над ур. моря [Российская Федерация]

Дополнительная информация

В oтличие oт бoльшинства пoгoдных сайтoв мы публикуем пoдрoбную метеoинфoрмацию в детальнoм прoфессиoнальнoм фoрмате.

Характеристики температуры и влажнoсти вoздуха измеряются на высoте 2 м в тени вдали oт зданий и деревьев.
Скoрoсть ветра измеряется на высoте 10 м (на урoвне рoста челoвека скoрoсть ветра ниже в 1.5-2 раза). Если метеoстанция нахoдится в гoрoде или в лесу, тo скoрoсть ветра занижена на 2-4 м/с пo сравнению с oткрытым местoм. Скoрoсть ветра над акватoриями крупных рек и oзёр, а также на вершинах хoлмoв на 2-5 м/с выше, чем в oбычных услoвиях.
Атмoсфернoе давление в разных тoчках местнoсти мoжет значительнo oтличаться oт давления на метеoстанции, в зависимoсти oт услoвий рельефа (при пoдъёме на 10 м давление пoнижается примернo на 1 мм рт.ст.).